Flag for Turkey Weather past 2 weeks in Istanbul, Turkey

Now
50 °F

Sprinkles. Passing clouds.


Feels Like: 48 °F
Forecast: 53 / 65 °F
Wind: 5 mph from Southwest

Location: Istanbul Ataturk Airport

Current Time: Mar 27, 2015 at 2:26:40 AM

Latest Report: Mar 27, 2015 at 1:50 AM


Visibility: 4 mi

Pressure: 29.89 "Hg

Humidity: 94%

Dew point: 48 °F

Location of IstanbulLocation

Historic Weather in Istanbul — Graph

°F

Istanbul temperature yesterday

Maximum temperature yesterday: 70 °F (at 3:20 PM)
Minimum temperature yesterday: 48 °F (at 4:50 AM)
Average temperature yesterday: 59 °F

Past Weeks' High & Low Weather Summary

 TemperatureHumidityPressure
High70 °F (Mar 26, 3:20 PM)94% (Mar 15, 9:20 AM)30.51 "Hg (Mar 15, 9:20 AM)
Low37 °F (Mar 18, 2:50 AM)29% (Mar 25, 11:50 AM)29.89 "Hg (Mar 12, 1:50 PM)
Average47 °F68%30.16 "Hg
* Reported Mar 12 12:20 AM — Mar 27 12:50 AM, Istanbul, Weather by CustomWeather, © 2015

Note: Actual official high and low records may vary slightly from our data, if they occured in-between our weather recording intervals... More about our weather records

Advertising

Istanbul weather history for previous 24 hours

 ConditionsComfort  
Time TempWeatherWind HumidityBarometerVisibility
12:50 AM
Fri, Mar 27
50 °FSprinkles. Passing clouds.8 mph94%29.89 "Hg4 mi
12:20 AM52 °FSprinkles. Passing clouds.7 mph88%29.89 "HgN/A
11:50 PM
Thu, Mar 26
55 °FSprinkles. Passing clouds.7 mph72%29.89 "HgN/A
11:20 PM61 °FSprinkles. Partly cloudy.5 mph48%29.92 "HgN/A
10:50 PM63 °FPartly cloudy.3 mph39%29.92 "HgN/A
10:20 PM64 °FPartly cloudy.3 mph37%29.92 "HgN/A
9:50 PM64 °FPartly cloudy.2 mph34%29.92 "HgN/A
9:20 PM66 °FPartly cloudy.5 mph32%29.95 "HgN/A
8:50 PM66 °FPartly cloudy.5 mph35%29.95 "HgN/A
8:20 PM68 °FPassing clouds.5 mph35%29.95 "HgN/A
7:50 PM66 °FPassing clouds.6 mph37%29.95 "HgN/A
7:20 PM64 °FClear.3 mph40%29.95 "Hg10 mi
6:50 PM61 °FClear.2 mph48%29.95 "Hg10 mi
6:20 PM61 °FPartly sunny.5 mph45%29.98 "HgN/A
5:50 PM63 °FPassing clouds.3 mph39%29.98 "HgN/A
5:20 PM63 °FPassing clouds.3 mph45%29.98 "HgN/A
4:50 PM64 °FPassing clouds.6 mph37%30.01 "HgN/A
4:20 PM64 °FSunny.6 mph37%29.98 "Hg10 mi
3:50 PM64 °FPassing clouds.5 mph40%30.01 "HgN/A
3:20 PM70 °FSunny.1 mph35%30.01 "Hg10 mi
2:50 PM66 °FPassing clouds.5 mph37%30.04 "HgN/A
2:20 PM66 °FPassing clouds.5 mph35%30.04 "HgN/A
1:50 PM68 °FPassing clouds.5 mph35%30.04 "HgN/A
1:20 PM68 °FPassing clouds.5 mph33%30.04 "HgN/A
12:50 PM68 °FPassing clouds.6 mph33%30.07 "HgN/A
12:20 PM64 °FPassing clouds.5 mph34%30.07 "HgN/A
11:50 AM63 °FPassing clouds.5 mph45%30.07 "HgN/A
11:20 AM59 °FPassing clouds.6 mph51%30.09 "HgN/A
10:50 AM63 °FPassing clouds.5 mph49%30.09 "HgN/A
10:20 AM61 °FPassing clouds.5 mph48%30.09 "HgN/A
9:50 AM61 °FSunny.5 mph45%30.09 "Hg10 mi
9:20 AM59 °FScattered clouds.2 mph45%30.12 "HgN/A
8:50 AM55 °FPartly sunny.5 mph59%30.12 "HgN/A
8:20 AM54 °FPartly sunny.6 mph63%30.09 "HgN/A
7:50 AM52 °FPartly sunny.6 mph77%30.09 "HgN/A
7:20 AM54 °FPartly sunny.3 mph63%30.09 "HgN/A
6:50 AM52 °FPartly sunny.3 mph67%30.09 "HgN/A
6:20 AM50 °FPartly sunny.1 mph71%30.09 "HgN/A
5:50 AM50 °FClear.5 mph76%30.09 "Hg10 mi
5:20 AM48 °FClear.5 mph82%30.09 "Hg10 mi
4:50 AM48 °FPassing clouds.5 mph76%30.09 "HgN/A
4:20 AM52 °FClear.1 mph62%30.09 "Hg10 mi
3:50 AM52 °FPassing clouds.3 mph67%30.07 "HgN/A
3:20 AM50 °FClear.1 mph71%30.09 "Hg10 mi
2:50 AM50 °FClear.2 mph71%30.09 "Hg10 mi
2:20 AM50 °FPassing clouds.3 mph71%30.09 "HgN/A
Weather by CustomWeather, © 2015

See weather overviewHow to use our weather pages